Location: Campolattaro
(41.2833°N, 14.7333°E)
Time: 00:12:22
(UTC+00:00)

SL-08 R/B - Pass Details

Date: 19 May 2025
Orbit: 667 x 731 km, 98.5° (Epoch: 22 June)

Event Time Altitude Azimuth Distance (km) Brightness Sun altitude
Rises 18:52:27 0° 11° (N) 3,156 7.0 -6.6°
Reaches altitude 10° 18:54:45 10° 10° (N) 2,224 6.3 -6.9°
Maximum altitude 18:59:37 74° 286° (WNW) 750 3.7 -7.7°
Drops below altitude 10° 19:04:23 10° 202° (SSW) 2,175 5.7 -8.4°
Sets 19:06:37 0° 200° (SSW) 3,079 6.5 -8.7°
